Regional Weather Roundup
Issued by NWS Northern Indiana

Home | Current Version | Previous Version | Text Only | Print | Product List | Glossary Off
Versions: 1 2 3 4 5 6 7 8 9 10 11 12 13 14 15 16 17 18 19 20 21 22 23 24 25 26 27 28 29 30 31 32 33 34 35 36 37 38 39 40 41 42 43 44 45 46 47 48 49 50

000
ASUS43 KIWX 020000
RWRIWX

KIWX WEATHER ROUNDUP
NATIONAL WEATHER SERVICE NORTHERN INDIANA
800 PM EDT SAT AUG 01 2015

NOTE: "FAIR" INDICATES FEW OR NO CLOUDS BELOW 12,000 FEET WITH NO
SIGNIFICANT WEATHER AND/OR OBSTRUCTIONS TO VISIBILITY.

* THESE STATIONS ARE NOT UNDER NWS QUALITY CONTROL. THEY ALSO MAY NOT
  REPORT WEATHER SUCH AS PRECIPITATION OR FOG.

INZ001>027-020100-
NORTHERN INDIANA

CITY           SKY/WX    TMP DP  RH WIND       PRES   REMARKS
KNOX*          MOSUNNY   81  55  41 W9G18     29.91F
SOUTH BEND     PTSUNNY   81  60  48 SW5       29.91F
6HR MIN TEMP:  78; 6HR MAX TEMP:  84;

GOSHEN         PTCLDY    77  60  55 SW7       29.92F
6HR MIN TEMP:  77; 6HR MAX TEMP:  82;

MONTICELLO*    SUNNY     79  61  53 SW9       29.94S
6HR MIN TEMP:  79; 6HR MAX TEMP:  84;

WARSAW*        PTCLDY    79  59  50 W3        29.93S
ANGOLA*        PTCLDY    77  61  57 CALM      29.93S
FORT WAYNE     PTCLDY    80  56  43 SW5       29.94F
6HR MIN TEMP:  78; 6HR MAX TEMP:  84;


$$
INZ028>050-020100-
CENTRAL INDIANA

CITY           SKY/WX    TMP DP  RH WIND       PRES   REMARKS
LAFAYETTE      MOSUNNY   77  64  64 SW5       29.95F
6HR MIN TEMP:  77; 6HR MAX TEMP:  83;

KOKOMO*        CLEAR     79  57  47 W8        29.96S
6HR MIN TEMP:  79; 6HR MAX TEMP:  84;

MUNCIE*        CLEAR     76  56  49 W6        29.96S
6HR MIN TEMP:  76; 6HR MAX TEMP:  81;

INDIANAPOLIS   PTCLDY    79  56  45 W12       29.97F
6HR MIN TEMP:  79; 6HR MAX TEMP:  84;


$$
MIZ043>046-050>051-056>058-064>065-071>073-077>080-020100-
SOUTHWEST LOWER MICHIGAN

CITY           SKY/WX    TMP DP  RH WIND       PRES   REMARKS
BATTLE CREEK   MOCLDY    76  57  51 W7        29.92S
6HR MIN TEMP:  76; 6HR MAX TEMP:  84;

BENTON HARBOR  PTSUNNY   78  59  51 W3        29.89F
6HR MIN TEMP:  74; 6HR MAX TEMP:  82;

COLDWATER*     PTCLDY    73  56  55 W5        29.92F
6HR MIN TEMP:  73; 6HR MAX TEMP:  81;

HILLSDALE*     PTCLDY    75  54  47 W7        29.93S
6HR MIN TEMP:  75; 6HR MAX TEMP:  82;

HOLLAND        PTSUNNY   75  56  51 SW3       29.90F
6HR MIN TEMP:  75; 6HR MAX TEMP:  81;

GRAND RAPIDS   MOSUNNY   79  50  36 W14       29.90S
6HR MIN TEMP:  79; 6HR MAX TEMP:  83;

KALAMAZOO      PTCLDY    77  55  46 W5        29.91F
6HR MIN TEMP:  77; 6HR MAX TEMP:  84;

STURGIS*       MOCLDY    73  61  64 CALM      29.92S
THREE RIVERS*  MOCLDY    76  58  52 CALM      29.92S

$$
OHZ001>008-015>018-024>025-020100-
NORTHWEST OHIO

CITY           SKY/WX    TMP DP  RH WIND       PRES   REMARKS
DEFIANCE       CLOUDY    79  52  38 VRB6      29.92F
6HR MIN TEMP:  79; 6HR MAX TEMP:  85;

FINDLAY        CLEAR     79  53  40 W9        29.91F
6HR MIN TEMP:  79; 6HR MAX TEMP:  84;

TOLEDO EXPRESS CLEAR     78  54  43 W10       29.90S
6HR MIN TEMP:  78; 6HR MAX TEMP:  83;

TOLEDO METCALF CLEAR     80  53  39 W12       29.90S
6HR MIN TEMP:  80; 6HR MAX TEMP:  85;

LIMA           MOCLDY    77  55  46 W7        29.94F
6HR MIN TEMP:  77; 6HR MAX TEMP:  83;


$$
AND FOR LAKE MICHIGAN COASTAL AND OPEN LAKE BUOY OBSERVATIONS

STATION/POSITION TEMP    WIND        PRES    VSBY  WAVE
                 AIR SEA DIR/SP/G                  HT/PER
                 (F)     (DEG/KT/KT) (MB)    (MI)  (FT/S)
CALUMET HARBOR    84     240/  5/ 14   N/A
MICHIGAN CITY     78      30/  1/  2   N/A
BURNS HARBOR      81     260/ 16/ 19 1012.9F
SAINT JOSEPH      81     190/  2/  3 1013.5F
4 MI NW BRIDGMAN  78 76  170/  2/  2   N/A           1/ 4
MICHIGAN CITY     77 76  110/  4/  6   N/A           1

$$
&&


USA.gov is the U.S. government's official web portal to all federal, state and local government web resources and services.